Change the Weather History Date:

Saturday, September 13, 2014

  Actual Average Record
Temperature  
Mean Temperature 48 °F 69 °F  
Max Temperature 62 °F 81 °F 103 °F (1911)
Min Temperature 34 °F 57 °F 33 °F (1890)
Degree Days  
Heating Degree Days 17 2  
Month to date heating degree days 54 12  
Since 1 July heating degree days 56 15  
Cooling Degree Days 0 6  
Month to date cooling degree days 71 98  
Year to date cooling degree days 1280 1264  
Moisture  
Dew Point 41 °F    
Average Humidity 73    
Maximum Humidity 100    
Minimum Humidity 46    
Precipitation  
Precipitation 0.00 in 0.10 in 1.66 in (2002)
Month to date precipitation 1.93 1.26  
Year to date precipitation 22.59 22.36  
Snow  
Snow 0.00 in 0.00 in T in (1928)
Month to date snowfall 0.0 0.0  
Year to date snowfall 16.9 13.7  
Since 1 July snowfall 0.0 0.0  
Snow Depth 0.00 in    
Sea Level Pressure  
Sea Level Pressure 30.33 in    
Wind  
Wind Speed 6 mph (South)    
Max Wind Speed 18 mph    
Max Gust Speed 23 mph    
Visibility 10 miles    
Events      
T = Trace of Precipitation, MM = Missing Value Source: NWS Daily Summary

Daily Weather History Graph

Daily Weather History Graph

Search for Another Location

Airport or City:

Trip Planner

Search our weather history database for the weather conditions in past years. The results will help you decide how hot, cold, wet, or windy it might be!

Date:

Astronomy

Sep. 13, 2014 Rise Set
Actual Time 7:09 AM CDT 7:42 PM CDT
Civil Twilight 6:42 AM CDT 8:09 PM CDT
Nautical Twilight 6:10 AM CDT 8:41 PM CDT
Astronomical Twilight 5:38 AM CDT 9:13 PM CDT
Moon 10:49 PM CDT (9/13) 12:16 PM CDT (9/13)
Length of Visible Light 13h 26m
Length of Day
12h 32m
Waning Gibbous, 74% of the Moon is Illuminated
Sep 13
Waning Gibbous
Sep 15
Last Quarter
Sep 24
New
Oct 1
First Quarter
Oct 8
Full

Hourly Weather History & Observations

Time (CDT) Temp. Windchill Dew Point Humidity Pressure Visibility Wind Dir Wind Speed Gust Speed Precip Events Conditions
12:55 AM 39.9 °F - 39.0 °F 97% 30.45 in 10.0 mi Calm Calm - N/A   Clear
1:55 AM 37.9 °F - 37.9 °F 100% 30.44 in 10.0 mi Calm Calm - N/A   Clear
2:55 AM 39.0 °F 36.8 °F 37.0 °F 93% 30.43 in 10.0 mi SSW 3.5 mph - N/A   Clear
3:55 AM 37.0 °F - 36.0 °F 96% 30.42 in 10.0 mi Calm Calm - N/A   Clear
4:55 AM 37.0 °F - 37.0 °F 100% 30.42 in 10.0 mi Calm Calm - N/A   Clear
5:55 AM 36.0 °F - 35.1 °F 97% 30.41 in 10.0 mi Calm Calm - N/A   Clear
6:55 AM 35.1 °F - 34.0 °F 96% 30.41 in 10.0 mi Calm Calm - N/A   Clear
7:55 AM 37.0 °F - 37.0 °F 100% 30.41 in 10.0 mi Calm Calm - N/A   Clear
8:55 AM 45.0 °F - 44.1 °F 97% 30.40 in 10.0 mi Calm Calm - N/A   Clear
9:55 AM 50.0 °F - 44.1 °F 80% 30.40 in 10.0 mi SE 6.9 mph - N/A   Scattered Clouds
10:55 AM 52.0 °F - 41.0 °F 66% 30.39 in 10.0 mi South 10.4 mph - N/A   Scattered Clouds
11:19 AM 52.0 °F - 41.0 °F 66% 30.36 in 10.0 mi SSE 11.5 mph - N/A   Mostly Cloudy
11:55 AM 55.9 °F - 42.1 °F 60% 30.37 in 10.0 mi South 17.3 mph - N/A   Mostly Cloudy
12:55 PM 55.9 °F - 41.0 °F 57% 30.35 in 10.0 mi South 12.7 mph 21.9 mph N/A   Partly Cloudy
1:55 PM 57.9 °F - 42.1 °F 56% 30.32 in 10.0 mi South 12.7 mph 21.9 mph N/A   Partly Cloudy
2:55 PM 59.0 °F - 42.1 °F 53% 30.27 in 10.0 mi SSE 12.7 mph - N/A   Overcast
3:55 PM 61.0 °F - 42.1 °F 50% 30.24 in 10.0 mi SSE 12.7 mph - N/A   Mostly Cloudy
4:55 PM 61.0 °F - 39.9 °F 46% 30.22 in 10.0 mi South 13.8 mph - N/A   Overcast
5:55 PM 59.0 °F - 41.0 °F 51% 30.22 in 10.0 mi South 9.2 mph - N/A   Overcast
6:55 PM 57.9 °F - 45.0 °F 62% 30.23 in 10.0 mi SW 5.8 mph - N/A   Overcast
7:55 PM 57.0 °F - 46.0 °F 67% 30.23 in 10.0 mi WSW 3.5 mph - N/A   Overcast
8:55 PM 55.9 °F - 50.0 °F 80% 30.22 in 10.0 mi Calm Calm - N/A   Overcast
9:55 PM 55.0 °F - 51.1 °F 86% 30.22 in 10.0 mi East 3.5 mph - N/A   Overcast
10:55 PM 51.1 °F - 48.9 °F 92% 30.22 in 10.0 mi Calm Calm - N/A   Clear
11:55 PM 48.9 °F - 46.0 °F 90% 30.22 in 10.0 mi Calm Calm - N/A   Clear